Theta_e
347 347 344 345 346 345 345 347 348 349 347 346 344 343 343 343 342 342 343 346 351 355 356 356 355 356 357 361 363 364 364 363 364 364 364 364 361 359 354 351 350 347 346 346 347 348 348 349 347 345 346 347 348 350 349 347 349 350 351 353 354 353 354
347 346 346 344 345 345 346 347 348 348 348 346 345 343 344 342 343 342 343 347 351 354 356 358 358 358 359 362 362 363 362 361 360 359 359 360 360 361 360 357 354 348 345 345 344 345 346 348 346 343 345 347 347 348 348 347 347 350 354 355 356 356 356
347 346 347 344 345 345 347 346 348 348 347 345 345 343 344 343 343 344 343 346 351 355 356 359 360 358 359 360 360 360 360 358 357 356 356 356 354 354 355 358 359 354 350 346 343 342 342 345 346 344 346 349 348 347 348 348 348 349 350 352 355 356 356
348 346 346 346 344 345 348 346 346 347 346 346 344 344 344 344 344 344 344 345 351 357 358 360 362 359 356 357 356 355 355 356 357 356 355 352 349 349 349 351 355 355 352 348 344 341 341 343 345 345 345 347 348 348 349 349 348 346 346 349 354 353 354
349 349 348 348 345 345 345 348 348 347 346 345 345 346 345 344 343 345 346 345 349 356 358 359 363 361 355 351 349 349 350 349 351 352 349 344 345 348 348 348 350 349 347 346 344 342 343 344 344 347 346 347 349 349 346 348 349 349 350 350 350 352 354
349 349 349 349 346 344 344 346 347 347 347 347 345 346 344 345 344 344 346 345 346 350 353 356 359 359 355 351 347 345 346 345 345 345 345 344 345 350 350 348 346 345 344 342 343 344 346 344 344 348 353 353 353 354 352 350 351 353 354 352 353 355 354
349 349 350 349 346 345 344 344 346 346 348 346 345 346 344 346 345 344 347 348 347 347 350 352 354 355 355 351 348 347 346 344 345 346 346 347 350 351 351 349 346 345 345 343 344 347 349 350 351 355 359 357 356 356 355 354 353 355 358 358 359 359 356
351 353 351 348 347 347 344 346 346 345 346 346 345 347 345 344 345 343 347 349 347 347 350 351 351 353 354 353 352 350 348 347 347 347 348 349 350 352 353 352 347 345 345 345 346 346 349 356 360 362 363 363 360 359 359 359 358 359 361 361 361 360 359
354 356 350 347 347 345 345 347 347 346 348 346 345 345 345 345 345 345 348 350 349 349 351 353 353 354 355 357 357 355 351 350 351 350 352 351 352 354 354 350 346 349 352 350 350 348 350 357 364 366 365 364 363 363 363 362 361 360 360 360 361 360 358
362 362 353 346 344 349 351 346 347 350 349 346 346 347 344 345 348 347 347 350 351 350 351 353 355 356 357 362 364 360 357 357 358 359 358 355 354 357 357 353 354 363 364 362 361 359 359 361 364 364 363 360 359 360 360 359 359 360 359 359 359 358 357
367 366 363 353 349 356 355 350 354 357 350 345 347 349 348 347 350 351 349 351 354 354 352 353 356 361 364 365 365 363 362 363 364 365 365 362 360 360 364 364 366 367 366 365 365 364 363 362 362 362 359 358 358 357 357 358 358 358 357 357 357 357 357
364 368 370 367 362 363 359 356 363 365 355 348 347 352 357 353 351 354 358 357 356 357 358 358 359 366 370 371 368 364 362 365 366 368 369 368 366 365 367 368 366 365 363 362 362 362 362 362 360 359 358 357 357 356 355 355 354 353 353 353 353 353 354
361 365 368 370 372 370 366 363 368 369 360 351 347 352 361 358 353 358 365 364 361 362 364 366 368 372 373 370 368 365 363 366 370 371 370 369 368 365 364 363 361 361 361 359 359 358 359 358 356 355 355 354 353 352 350 349 348 348 348 348 348 348 348
360 362 366 371 373 372 371 369 370 368 357 354 355 356 360 360 358 364 369 370 370 370 370 372 373 372 370 367 368 368 367 368 369 368 366 365 364 362 361 360 359 359 358 357 357 355 354 353 353 352 351 349 348 346 345 345 344 343 342 341 341 340 340
358 358 361 369 371 370 373 372 371 367 359 362 368 366 365 366 367 371 373 373 373 372 372 372 371 370 370 370 370 369 367 366 364 363 363 361 361 360 358 357 357 355 354 353 353 352 350 349 349 348 347 346 345 345 344 343 339 336 335 335 334 333 333
360 359 357 363 365 365 372 376 375 374 372 371 373 371 372 374 375 375 375 374 374 373 372 372 371 371 371 369 367 366 364 362 361 361 359 358 357 357 356 354 353 352 351 350 349 348 348 346 346 346 345 344 343 342 341 338 333 331 331 331 330 329 328
365 366 364 367 369 367 375 378 375 377 379 376 375 375 377 377 378 376 376 375 374 374 374 372 371 371 367 365 363 363 361 360 358 357 356 355 355 353 352 352 350 349 348 347 346 346 345 345 344 343 341 341 339 338 337 334 331 330 330 328 327 326 325
368 368 368 373 378 377 377 379 378 380 379 378 378 380 379 379 378 376 375 375 373 372 370 369 368 366 363 362 361 359 359 357 356 355 353 352 352 350 349 348 347 346 345 344 344 343 343 342 341 339 339 339 338 337 336 332 330 329 327 325 324 324 323
366 368 370 373 379 381 380 381 381 380 380 380 381 380 379 378 377 375 373 372 370 368 366 365 364 363 361 359 358 357 356 354 353 353 350 350 348 348 347 346 345 344 342 342 342 341 340 338 338 339 339 338 338 337 335 331 328 327 325 324 323 322 323
363 365 370 374 378 379 379 380 380 379 380 380 379 378 376 375 373 372 369 367 366 365 363 362 361 360 358 357 355 355 353 352 351 349 348 347 347 345 344 343 342 341 340 339 339 338 338 338 338 338 338 337 336 335 332 329 327 326 324 323 323 322 322
366 366 369 375 378 376 377 379 379 380 379 377 374 374 372 370 369 367 365 364 363 362 361 360 359 356 356 354 352 351 350 349 348 347 346 345 344 343 341 340 339 338 337 337 338 337 337 337 336 336 335 333 332 332 330 328 327 325 323 323 322 321 321
372 370 368 374 376 375 378 380 377 376 374 372 370 369 368 366 365 364 363 362 361 360 359 357 356 354 353 351 349 348 348 346 346 345 344 343 341 340 339 338 337 336 336 337 337 336 335 334 334 333 331 330 330 329 328 328 326 325 323 322 321 320 320
367 368 369 375 376 376 378 375 372 371 368 367 366 365 364 363 362 361 361 359 358 357 355 353 352 351 349 348 347 346 346 345 344 343 342 341 339 338 337 337 336 335 336 336 335 333 332 331 331 330 329 329 327 327 326 326 326 324 322 321 320 319 319
363 367 372 375 375 374 372 369 368 367 365 364 363 362 362 361 360 359 358 357 356 354 352 350 349 348 347 346 346 344 344 343 342 340 339 338 337 337 336 335 335 334 334 334 332 331 329 329 329 328 328 327 326 326 326 325 325 324 322 321 320 319 319
366 367 370 371 369 369 367 366 365 364 363 363 361 361 360 359 358 356 355 354 353 351 350 349 348 347 346 344 343 342 341 340 339 338 337 336 336 335 334 334 333 332 332 330 330 329 328 328 328 327 327 326 326 326 325 325 325 323 322 320 319 318 318
366 365 366 365 365 364 364 364 364 362 362 361 360 359 358 356 355 354 353 352 351 349 348 347 346 345 343 342 341 340 339 338 337 337 336 335 334 334 333 332 331 331 330 329 329 329 328 327 327 327 327 326 326 326 325 324 324 323 321 319 319 319 319
363 363 363 362 362 362 361 361 360 359 359 359 358 357 355 354 353 352 351 350 348 347 347 345 343 342 341 340 339 337 337 336 335 335 335 334 333 332 331 331 330 330 330 329 328 328 327 327 327 326 326 326 325 325 324 324 324 321 319 318 320 320 320
361 361 361 361 361 360 359 358 357 357 357 356 355 353 352 352 350 350 348 347 346 345 344 343 342 340 339 338 337 335 335 335 334 334 334 332 332 331 330 330 330 329 329 328 328 327 326 326 327 326 326 326 325 324 323 323 323 319 316 318 321 321 321
360 359 360 360 358 357 356 355 354 353 352 351 351 350 350 348 348 346 346 345 344 344 343 341 340 338 337 336 335 335 335 334 333 333 332 332 331 330 329 329 328 328 328 328 327 326 326 326 326 326 325 325 324 323 321 321 320 317 317 320 322 322 322
359 358 358 357 355 353 352 351 351 350 349 348 348 348 347 346 346 345 344 344 343 341 341 340 338 336 335 335 334 334 334 334 333 332 331 330 330 330 330 329 328 328 327 326 326 326 326 326 325 325 325 324 322 321 319 318 317 316 318 321 322 322 322
357 355 355 353 351 350 350 349 349 348 348 347 347 347 346 346 345 344 343 343 342 340 340 339 337 336 335 334 333 333 333 332 332 330 330 330 330 330 329 329 329 328 326 325 325 325 326 325 324 322 322 321 321 320 318 317 317 317 319 320 321 322 322
354 353 352 351 350 350 349 348 349 348 348 347 346 345 345 344 344 343 342 341 341 340 339 337 335 335 334 333 333 332 332 331 330 330 329 328 329 329 329 329 328 327 326 324 323 323 323 324 323 321 319 318 318 318 318 317 316 316 318 320 320 321 321
350 351 351 350 349 349 347 347 347 346 346 345 344 343 343 342 341 341 340 340 340 338 337 335 335 334 333 333 333 332 332 331 329 328 328 326 326 325 325 325 325 324 324 324 323 322 321 321 322 321 319 318 318 319 318 317 316 317 318 319 320 320 321
351 352 350 348 348 348 347 347 345 345 344 343 342 341 341 340 340 340 339 339 338 337 336 335 335 334 333 333 333 332 331 330 329 329 327 326 325 323 321 320 319 317 318 318 320 321 321 320 321 321 320 319 319 319 319 317 315 316 318 319 320 320 320
352 350 350 349 349 348 347 346 345 344 344 342 341 340 340 340 340 339 338 337 337 336 335 335 335 335 334 333 332 331 330 329 329 329 329 327 325 323 321 319 316 313 312 312 314 316 317 318 317 318 320 320 318 317 318 316 315 316 318 319 319 320 320
350 348 349 348 348 346 346 344 343 342 341 341 340 340 339 339 339 338 337 337 335 335 334 334 335 334 332 332 331 330 329 327 326 326 327 326 323 320 318 316 314 311 310 310 310 312 313 314 314 315 317 319 317 315 315 314 315 316 318 319 320 320 320
350 349 348 347 346 346 344 343 342 341 340 341 340 339 339 339 338 337 336 336 335 334 333 334 335 334 333 332 331 329 327 324 323 322 322 320 319 316 314 312 310 310 309 309 309 309 309 311 312 313 314 315 315 314 313 312 313 316 318 319 320 320 320
350 350 348 347 347 345 344 343 342 341 340 340 339 338 338 338 337 336 335 334 334 334 334 335 335 334 333 331 330 329 327 324 322 321 320 319 318 316 315 313 311 310 310 311 311 310 309 308 309 310 311 312 312 311 311 311 312 314 317 318 319 320 320
Wind_Speed
15 15 16 14 14 15 15 13 13 15 18 19 22 23 22 21 23 21 20 26 31 28 27 26 23 21 22 21 19 18 17 16 15 16 16 17 18 17 16 16 16 18 18 17 18 19 18 17 15 15 15 13 16 22 21 17 18 21 20 19 20 21 22
16 14 15 15 14 15 15 16 15 16 18 19 21 22 22 21 22 22 20 23 31 31 28 27 24 22 21 21 19 18 18 16 15 16 15 16 17 17 16 15 15 17 18 16 15 15 15 18 18 18 17 17 16 19 19 16 15 19 21 21 20 20 19
16 15 14 14 14 13 14 16 17 17 19 20 21 22 21 21 21 22 21 21 28 31 28 27 25 22 20 20 18 17 18 17 16 16 15 15 15 15 16 16 15 15 17 17 17 18 18 17 18 19 19 17 16 17 17 15 15 18 20 21 22 21 19
17 16 15 15 15 13 12 14 16 18 19 20 21 21 21 21 20 20 21 21 26 30 28 25 25 21 19 19 17 16 16 17 16 16 15 16 16 15 15 17 17 17 18 18 18 19 21 19 15 15 15 15 17 20 20 20 20 20 19 19 21 20 17
18 15 13 13 14 14 12 12 16 19 20 20 21 21 21 21 20 20 21 20 23 29 29 26 24 21 19 18 17 16 16 18 18 17 17 17 17 15 14 16 17 17 17 18 17 19 22 21 15 12 13 14 16 19 21 21 22 21 18 17 18 16 13
16 14 11 11 14 15 13 13 17 21 20 20 21 21 22 22 21 21 22 21 20 23 26 24 22 21 20 20 19 17 17 19 20 19 18 18 17 14 14 16 17 17 17 18 17 15 15 16 14 12 12 12 12 14 16 19 21 20 17 16 15 13 15
13 12 11 11 12 13 14 14 17 21 21 20 21 21 21 21 21 22 22 24 22 20 22 23 22 21 21 20 18 16 15 15 15 13 13 12 13 12 14 15 15 15 15 15 15 10 7 7 9 10 11 11 11 13 15 16 16 14 12 12 10 9 13
13 11 11 12 11 12 13 12 15 19 20 19 19 20 20 20 22 21 20 24 25 21 21 24 24 22 21 20 18 15 15 15 14 14 12 7 10 11 12 12 13 15 16 16 17 14 8 4 3 4 6 7 9 12 12 12 11 10 10 10 9 9 11
14 13 13 14 13 13 11 11 13 16 18 19 18 19 20 19 20 22 20 22 25 22 20 22 24 23 21 19 17 16 16 16 16 16 14 8 8 10 11 11 12 13 14 14 13 11 8 5 2 2 3 4 6 7 8 8 8 9 9 8 8 9 11
13 11 14 15 13 11 10 10 12 12 15 17 16 17 22 20 19 23 23 21 24 24 22 20 20 22 21 19 16 15 14 14 12 11 10 8 7 8 8 8 7 7 6 5 4 3 4 5 4 5 6 7 7 8 8 8 8 9 10 10 11 12 13
11 10 11 13 12 10 11 10 10 10 13 16 15 14 23 23 16 17 20 22 26 25 23 21 17 17 19 17 15 13 11 10 8 6 4 3 4 4 2 1 3 7 6 5 6 5 3 3 4 5 7 8 8 9 9 10 9 9 10 11 12 12 12
10 9 7 8 8 10 12 10 8 9 13 16 15 11 17 22 16 11 14 21 25 24 21 19 16 14 14 13 11 10 8 7 5 3 1 1 1 1 4 5 4 6 7 6 6 5 4 4 5 6 7 9 9 10 11 11 11 10 10 11 12 12 11
9 9 8 7 6 8 12 11 9 8 9 11 15 12 12 20 18 13 16 20 21 20 18 16 14 13 11 9 8 7 6 5 5 5 5 5 5 6 7 5 4 5 6 6 6 6 5 5 5 5 7 9 10 10 13 12 10 8 8 9 10 10 10
12 11 9 7 7 10 10 10 9 10 7 9 16 16 14 17 18 16 19 19 17 17 16 14 13 12 10 9 9 8 7 8 9 7 7 7 7 6 7 6 5 6 6 5 5 7 8 7 6 7 8 9 9 10 11 8 7 8 9 10 11 12 13
16 11 8 7 8 9 9 9 10 12 12 12 16 18 16 16 17 18 18 17 17 16 15 14 14 12 12 12 12 12 11 11 10 8 8 8 7 7 7 7 6 5 7 7 6 7 8 8 9 9 9 8 8 9 7 6 9 12 13 14 15 16 16
16 14 10 10 9 8 8 10 12 13 13 13 16 18 17 16 17 18 17 17 16 16 15 15 15 14 14 15 14 12 12 11 10 9 9 9 7 6 6 6 7 7 7 8 8 7 8 8 8 8 7 7 9 8 7 8 12 14 15 16 18 19 20
11 17 14 12 13 12 10 11 12 12 12 13 16 18 17 17 17 18 17 17 17 17 16 16 16 15 16 16 14 13 12 12 11 11 11 9 7 7 7 7 8 8 8 8 7 7 7 7 7 8 7 8 9 8 8 10 14 16 18 20 21 22 24
9 16 16 13 13 13 12 12 12 12 12 15 18 18 18 18 18 18 18 18 18 18 18 18 17 17 17 16 14 14 14 13 11 11 10 8 7 9 10 9 8 8 8 8 7 7 7 8 8 9 9 10 11 9 9 12 16 17 21 23 23 25 26
10 12 15 15 14 13 14 12 11 13 14 16 18 19 19 20 19 19 19 19 19 20 20 19 18 17 17 16 14 14 13 12 11 11 10 9 9 9 9 9 9 9 9 8 8 8 8 9 10 11 11 12 11 9 8 13 17 19 24 25 25 28 27
6 5 9 15 15 14 13 11 12 15 17 18 19 20 20 20 20 20 21 21 21 21 20 19 18 17 17 16 14 13 11 11 12 11 10 10 10 10 10 10 9 9 9 9 9 9 10 11 12 12 12 12 12 10 9 14 19 22 25 27 27 29 27
6 3 6 13 16 14 13 13 14 17 19 19 20 21 21 21 22 22 22 22 22 21 20 19 18 18 17 16 15 13 12 12 11 11 10 10 10 10 10 9 10 10 10 9 10 11 10 10 10 11 13 13 13 12 10 13 18 23 26 27 29 30 26
10 5 8 7 14 14 15 17 18 20 20 20 21 22 22 23 23 24 23 23 22 21 20 19 18 18 17 16 15 13 12 12 11 11 10 10 10 10 10 10 10 10 10 9 9 10 10 11 12 12 14 15 15 14 12 13 17 23 25 27 30 30 24
14 7 6 5 13 15 18 22 24 24 24 24 24 23 24 24 24 24 24 23 22 21 20 19 18 17 17 15 15 14 12 12 11 11 10 10 10 10 10 10 10 9 8 8 9 11 13 15 15 14 14 15 15 15 14 14 17 21 24 27 30 28 21
18 15 11 14 15 17 20 22 23 26 26 27 26 25 25 25 24 24 23 21 20 20 19 19 18 17 16 15 14 14 13 12 11 11 10 10 10 9 10 9 8 8 8 10 12 14 14 14 14 14 15 15 15 15 15 15 16 19 24 27 28 25 19
19 18 20 21 19 18 20 21 22 25 26 27 27 26 26 25 23 23 21 20 19 18 18 17 16 15 15 15 14 14 13 12 11 11 11 10 9 9 8 8 8 9 10 12 13 13 12 12 13 14 14 14 14 14 15 16 16 19 24 25 24 23 19
19 19 21 24 24 21 21 22 23 23 23 24 26 25 24 23 22 21 20 19 18 18 17 16 16 15 15 15 15 14 13 12 12 12 11 10 10 8 7 8 9 10 10 11 11 10 11 12 12 13 13 13 14 14 15 16 16 18 23 23 20 20 19
21 21 22 26 28 26 23 21 21 22 21 22 22 23 22 22 21 20 20 19 18 17 17 16 16 16 15 15 14 13 13 13 13 12 11 10 9 8 8 8 9 9 10 10 9 10 12 12 12 13 13 13 14 15 16 17 17 19 22 20 18 18 18
21 22 24 26 27 26 24 23 22 21 20 19 19 19 20 22 23 21 19 18 17 16 16 16 16 16 15 15 14 13 13 13 12 11 10 9 9 8 7 8 9 9 8 8 9 12 13 12 12 13 13 14 15 16 17 17 17 21 22 19 17 17 17
21 21 24 24 24 24 24 24 22 21 20 19 18 18 19 22 23 20 18 18 15 14 15 15 15 16 16 15 14 13 13 13 12 11 10 9 8 8 8 9 9 9 8 9 11 13 12 12 14 14 14 15 15 17 18 18 18 21 21 18 16 18 18
20 21 23 25 27 28 26 23 22 22 22 21 20 20 19 20 21 20 18 17 14 13 14 13 14 15 15 14 14 14 13 12 11 11 11 9 8 8 9 9 9 9 10 11 12 11 10 13 16 15 13 14 15 16 18 18 20 23 22 18 16 18 19
18 21 24 27 28 28 27 26 25 24 23 23 23 23 20 17 19 20 17 15 13 13 13 12 13 14 14 13 14 14 13 13 12 11 10 9 8 9 9 9 9 10 11 12 13 13 13 15 15 13 13 14 14 15 16 18 21 24 23 20 19 20 20
16 18 21 24 26 29 31 30 28 26 24 23 24 24 20 16 17 17 15 13 12 12 12 13 13 12 13 13 14 14 13 12 12 12 11 9 9 9 9 9 10 11 11 11 13 14 14 13 12 11 12 13 13 14 14 16 19 24 24 23 23 24 23
15 17 18 19 21 24 27 29 29 27 25 23 22 22 20 16 15 14 12 11 10 11 12 13 12 12 12 13 13 14 13 12 12 12 12 11 11 12 11 11 11 12 12 12 11 11 12 11 9 9 10 11 12 12 13 14 18 22 25 26 26 26 26
15 17 18 19 18 16 18 22 26 26 25 23 23 23 22 19 17 15 13 11 11 11 12 12 12 11 12 12 11 12 12 12 13 14 13 12 13 14 14 14 15 16 16 14 12 11 10 9 8 8 9 10 11 11 11 13 18 22 24 26 27 27 27
17 18 18 20 20 18 17 20 23 24 23 21 21 23 22 20 18 16 14 12 11 12 12 13 13 12 12 11 11 11 10 9 11 14 15 14 14 15 15 14 15 17 17 15 14 12 11 10 9 8 8 8 10 11 11 13 18 21 22 24 26 26 27
19 20 21 22 24 22 21 20 22 24 22 20 20 20 20 19 18 16 13 12 11 11 12 13 14 13 12 11 11 11 10 9 11 13 13 13 15 15 15 14 14 15 16 15 13 13 12 12 12 11 9 8 8 11 13 15 18 20 20 21 23 24 25
20 21 22 23 24 23 22 21 21 22 21 20 19 19 18 17 16 14 13 11 10 11 13 13 13 13 12 11 12 12 12 12 12 13 14 15 15 15 15 15 14 14 14 13 13 12 12 11 11 11 12 10 10 12 14 16 17 17 18 20 22 22 23
23 23 23 23 23 22 22 21 20 20 20 18 18 18 17 16 15 13 12 11 11 12 13 13 13 12 11 11 12 14 15 15 15 15 15 15 14 13 13 14 13 12 11 11 11 11 11 11 11 10 11 11 12 13 15 16 16 16 18 20 21 21 21
Wind_Direction
198 192 185 185 187 186 182 183 186 186 188 186 188 196 200 193 187 194 190 171 169 174 179 186 192 191 194 199 205 208 211 213 214 218 220 224 229 232 238 240 239 244 249 250 252 247 237 231 235 260 269 252 241 244 245 255 263 257 254 255 255 254 254
193 197 190 184 186 187 180 178 183 186 189 190 190 195 202 198 189 192 191 174 169 174 179 186 191 190 192 198 205 208 212 216 218 222 225 227 230 231 237 245 248 253 260 263 265 266 248 225 231 251 247 233 242 250 245 249 257 247 242 248 250 249 251
189 196 192 184 184 187 180 174 180 188 192 192 192 196 201 203 196 191 189 180 171 174 180 185 188 190 192 198 205 207 211 218 222 226 229 231 233 236 238 240 242 247 258 264 263 269 269 249 235 233 227 234 255 256 245 247 253 246 246 253 248 245 250
188 194 188 180 180 184 178 171 176 187 193 194 194 196 200 205 204 193 191 187 174 172 180 184 186 190 193 198 205 208 212 218 222 224 229 236 240 242 245 243 237 233 240 251 251 252 260 261 254 241 233 244 257 256 256 258 257 254 257 258 249 247 254
186 189 183 178 179 181 180 171 171 181 192 195 194 195 198 205 208 199 195 194 181 175 180 182 183 192 199 201 207 211 215 221 225 225 229 238 241 239 246 251 249 246 246 248 247 243 243 245 256 265 253 249 255 259 259 256 253 254 259 268 268 258 250
183 179 181 188 183 177 176 172 171 179 190 195 196 197 198 199 206 206 197 194 190 182 180 178 181 194 203 207 214 219 222 224 222 223 231 233 231 229 240 252 254 253 256 256 256 259 256 251 260 270 255 247 253 254 252 254 255 255 259 276 280 259 242
175 172 181 191 182 170 171 174 176 179 186 195 197 197 199 197 200 211 200 186 192 193 180 179 187 197 205 212 222 229 237 240 231 234 246 229 216 226 241 251 260 263 270 271 266 277 298 276 266 264 252 250 255 255 259 264 262 261 270 281 279 260 252
167 170 179 185 181 171 171 178 181 179 180 193 200 193 200 201 194 207 204 180 187 197 182 183 192 197 204 211 219 227 238 251 257 266 272 237 210 232 243 249 265 279 293 293 279 280 304 309 276 266 262 265 269 269 272 276 272 275 288 289 277 273 276
163 170 171 176 182 176 173 176 175 173 172 188 204 192 192 206 196 199 203 180 180 191 184 184 191 194 201 208 213 223 230 239 249 257 265 256 226 236 248 257 273 286 295 297 285 277 289 306 332 338 305 297 295 288 289 295 293 294 304 305 293 289 294
157 162 161 174 187 174 164 170 170 167 164 182 207 189 181 204 205 194 198 183 175 184 186 187 190 191 198 205 212 223 229 231 235 241 254 259 241 243 252 262 290 319 324 327 341 330 303 309 334 339 326 320 318 314 312 313 313 313 319 318 310 307 307
155 154 159 179 184 158 149 165 174 164 157 178 209 192 175 190 200 189 189 180 171 177 184 189 191 189 195 204 212 219 219 217 217 225 244 254 247 253 240 159 19 15 20 25 28 26 3 342 341 332 327 328 330 332 329 322 321 324 325 317 309 307 307
160 156 174 189 172 147 148 166 180 159 152 171 199 197 165 170 181 175 163 161 163 168 174 184 191 190 193 199 204 207 205 198 188 184 167 92 31 63 82 83 62 35 28 26 21 14 11 2 350 339 342 349 351 347 341 339 340 336 329 321 317 317 317
160 162 184 191 158 133 143 162 166 145 141 163 184 192 164 159 166 153 133 139 152 159 163 174 180 181 182 181 177 180 180 159 131 108 97 85 67 70 74 67 58 47 35 32 22 10 2 350 348 357 3 4 359 348 343 346 349 345 344 347 342 340 339
156 169 177 178 156 133 142 167 156 143 163 177 173 174 164 152 149 136 129 134 142 148 154 161 163 162 161 153 141 129 121 114 104 94 91 88 76 70 71 66 59 46 35 29 18 19 22 16 17 23 18 9 355 346 348 356 3 357 355 356 350 346 345
153 164 171 173 158 139 152 174 158 153 174 175 155 150 147 141 136 131 130 133 137 142 146 149 149 147 142 132 118 106 102 99 95 95 94 89 82 74 69 64 58 50 41 33 23 23 21 17 20 20 12 5 354 354 12 31 28 17 6 359 353 348 344
155 153 174 178 159 157 164 159 150 149 156 154 141 138 140 138 135 133 132 132 134 136 138 139 138 133 128 120 111 106 105 101 97 95 91 86 82 79 73 61 52 49 44 37 32 27 17 12 18 16 7 3 360 12 44 44 26 16 7 2 359 352 347
163 147 167 168 152 161 163 145 143 143 142 143 140 139 141 140 137 135 131 130 130 131 132 132 128 122 118 115 113 112 107 102 97 93 92 92 83 73 71 61 50 50 47 41 36 31 26 25 22 15 8 3 5 26 54 38 19 9 1 359 358 354 351
196 151 157 154 146 154 151 145 148 146 143 143 141 142 142 140 136 132 130 130 131 131 129 126 121 117 116 116 116 111 107 107 104 97 93 85 67 60 64 63 56 53 47 39 35 30 28 26 17 13 12 9 13 33 46 24 11 4 359 358 356 354 352
195 163 158 154 151 152 149 150 149 145 144 143 140 142 141 138 134 129 130 130 128 126 123 120 119 116 114 115 114 112 112 110 100 90 83 76 69 65 63 61 56 51 42 33 31 26 20 17 16 19 24 20 18 33 37 18 9 3 360 357 353 351 351
160 167 175 161 153 153 150 146 143 141 140 138 139 137 133 130 127 123 124 123 120 119 118 116 116 113 111 109 108 106 103 95 88 84 79 76 75 70 63 58 52 46 39 29 25 24 22 21 21 23 29 26 21 30 30 13 6 0 357 355 350 348 350
67 20 232 174 151 149 145 138 138 136 130 129 131 128 123 122 122 119 118 117 115 116 116 114 112 109 106 103 100 97 92 90 89 85 80 75 71 66 61 56 49 42 35 29 29 29 25 25 29 31 33 29 22 23 22 9 1 357 356 354 350 349 350
74 23 275 188 142 142 139 134 133 128 123 124 124 122 123 125 124 120 117 117 117 116 114 112 109 106 103 98 96 95 92 90 89 82 77 74 69 64 56 49 45 39 33 32 35 31 25 29 38 39 36 31 21 16 14 4 356 354 355 354 351 350 350
122 156 233 130 120 129 129 130 132 128 127 128 126 126 126 126 125 123 121 120 119 116 113 109 106 105 102 98 95 94 91 90 89 84 80 74 67 62 55 49 46 39 29 31 42 38 30 31 35 33 30 27 19 12 10 1 352 353 356 354 352 353 353
141 153 143 113 113 122 124 129 133 132 131 130 129 129 128 127 127 124 121 120 119 116 113 109 106 105 102 100 98 95 93 92 90 85 80 74 67 62 58 53 50 44 31 33 45 46 33 27 28 26 26 24 16 9 7 3 357 355 356 354 354 358 358
137 135 129 126 128 131 131 130 129 129 129 128 129 131 131 128 126 121 119 119 116 112 107 104 104 105 103 102 100 97 95 94 91 87 82 75 70 67 65 60 54 52 44 38 43 44 33 28 29 28 26 22 15 10 8 7 4 357 355 355 358 3 2
134 135 136 134 133 132 130 127 126 127 127 125 127 129 128 125 122 118 116 113 108 104 102 102 104 104 104 103 101 99 96 92 90 89 85 82 80 72 68 64 56 54 52 46 45 46 42 39 36 32 28 21 18 18 13 12 10 1 356 359 6 10 7
132 133 132 129 129 131 131 129 128 126 123 122 124 124 123 120 115 109 106 105 103 103 105 108 109 108 107 105 101 99 97 94 93 93 90 89 86 77 71 68 61 57 56 50 49 54 52 47 42 39 35 28 25 24 20 19 17 7 3 9 17 18 13
132 128 125 126 130 134 133 131 128 122 117 117 117 116 115 111 105 101 101 101 102 107 112 114 114 111 109 106 103 102 101 100 98 96 92 91 90 86 78 71 67 66 63 56 58 57 51 47 47 44 38 33 31 28 24 23 17 9 12 24 29 23 18
133 130 130 131 132 129 128 126 121 114 109 106 104 102 102 100 99 100 101 100 103 110 113 113 114 113 110 108 107 107 107 105 103 100 98 95 93 88 78 71 68 61 54 60 68 64 54 51 51 44 36 32 31 29 26 24 19 16 24 36 35 26 26
133 134 133 132 131 127 123 117 108 101 97 94 90 86 86 92 98 99 98 99 105 110 110 112 114 112 109 111 112 112 112 110 107 103 100 96 91 84 77 74 71 57 47 52 61 65 68 67 55 41 33 30 28 27 26 24 22 24 33 42 36 29 29
134 135 132 129 127 123 116 109 102 97 94 91 87 84 82 87 94 95 95 101 109 114 118 118 115 111 113 117 116 112 111 110 105 99 96 94 91 88 84 81 77 68 58 49 40 38 52 63 57 44 38 32 25 25 25 23 23 26 32 37 32 27 26
125 123 121 120 120 120 117 112 106 100 96 93 91 91 88 86 88 91 98 108 117 125 126 121 116 118 120 118 115 115 114 113 108 101 98 97 91 86 83 78 73 71 68 59 47 39 41 49 51 47 44 35 27 26 26 22 21 23 26 27 24 22 22
114 108 108 110 113 118 119 116 113 111 108 105 102 102 102 101 101 104 112 121 126 131 131 125 124 125 124 123 127 129 125 119 114 109 103 96 88 82 78 74 71 67 61 55 52 48 44 44 43 40 41 34 24 23 26 24 21 21 21 21 19 17 17
115 114 114 111 108 107 108 110 113 115 114 115 116 118 120 122 123 126 130 132 133 136 136 135 135 134 132 131 133 132 131 131 130 123 108 90 83 80 77 77 76 74 70 63 59 56 50 42 34 27 30 30 19 14 18 18 17 18 18 17 16 16 16
116 114 110 105 100 96 95 99 103 105 106 111 118 122 125 126 127 129 132 135 142 146 144 140 138 135 131 130 130 131 131 123 113 108 101 93 90 87 85 86 84 81 79 76 72 69 64 57 51 43 38 32 25 23 21 14 14 19 21 20 19 18 18
117 113 108 103 100 98 97 96 98 100 103 107 112 116 118 119 120 124 129 137 149 153 148 143 140 135 132 137 139 132 118 100 92 95 101 105 104 99 96 96 93 87 84 81 76 73 70 64 59 57 57 51 38 34 32 27 23 24 27 30 29 26 25
122 119 116 113 110 108 108 107 106 106 106 108 111 112 113 114 117 122 128 137 147 150 149 147 142 137 139 144 142 133 124 119 116 113 113 115 116 115 111 106 100 92 86 82 76 70 66 62 55 51 53 52 43 37 37 36 32 29 31 36 36 33 33
123 121 119 116 115 115 116 115 113 112 112 114 115 116 115 115 116 120 128 137 144 148 152 151 145 141 143 148 149 143 135 131 128 126 125 127 129 131 128 122 116 111 101 91 83 72 63 58 52 44 42 42 39 37 36 35 33 32 34 38 37 35 36